DHK38 EDDP-UAAA

Flight info

Callsign DHK38
Flight time 6h 3m
Altitude 33000
Route DRN Z21 OMELO DCT BAXEV DCT NEPAK DCT BMR DCT GAROC DCT GIDRO DCT BOMKI M860 KUGOS UL851 KARDE UN644 ROLIN N644 LAGAS M747 SUBUT T916 TUROK L855 TIPSA
Aircraft A306/H-VGDW/C

Departure

Time 2026-04-25 07:58
Airport Leipzig/Halle Airport (EDDP)

Arrival

Time 2026-04-25 14:01
Airport Almaty International Airport (UAAA)
Time Latitude Longitude Altitude Speed Heading
2026-04-25 07:09 51.40834 12.24344 471 ft 0 kts 85°
2026-04-25 07:47 51.40833 12.24333 470 ft 4 kts 84°
2026-04-25 07:47 51.40828 12.24291 467 ft 4 kts 68°
2026-04-25 07:48 51.40815 12.24256 466 ft 4 kts 36°
2026-04-25 07:48 51.40798 12.24244 465 ft 1 kts 355°
2026-04-25 07:53 51.40806 12.24243 468 ft 4 kts 355°
2026-04-25 07:53 51.40850 12.24238 471 ft 9 kts 355°
2026-04-25 07:53 51.40932 12.24227 470 ft 14 kts 355°
2026-04-25 07:54 51.41036 12.24216 473 ft 13 kts
2026-04-25 07:54 51.41082 12.24301 471 ft 9 kts 85°
2026-04-25 07:54 51.41088 12.24416 471 ft 13 kts 85°
2026-04-25 07:54 51.41096 12.24594 473 ft 19 kts 86°
2026-04-25 07:55 51.41106 12.24819 475 ft 20 kts 85°
2026-04-25 07:55 51.41115 12.25027 478 ft 18 kts 85°
2026-04-25 07:55 51.41124 12.25211 478 ft 16 kts 85°
2026-04-25 07:55 51.41132 12.25370 471 ft 12 kts 85°
2026-04-25 07:56 51.41137 12.25484 477 ft 9 kts 85°
2026-04-25 07:56 51.41151 12.25601 477 ft 12 kts 52°
2026-04-25 07:56 51.41238 12.25620 482 ft 15 kts 355°
2026-04-25 07:56 51.41344 12.25606 478 ft 15 kts 355°
2026-04-25 07:57 51.41398 12.25524 484 ft 11 kts 272°
2026-04-25 07:57 51.41393 12.25411 481 ft 10 kts 265°
2026-04-25 07:57 51.41382 12.25161 479 ft 42 kts 266°
2026-04-25 07:57 51.41344 12.24366 482 ft 99 kts 265°
2026-04-25 07:58 51.41277 12.22987 473 ft 148 kts 266°
2026-04-25 07:58 51.41159 12.21092 527 ft 190 kts 264°
2026-04-25 07:58 51.41031 12.18964 1361 ft 187 kts 268°
2026-04-25 07:58 51.40932 12.16891 2100 ft 196 kts 267°
2026-04-25 07:59 51.40843 12.14611 2423 ft 215 kts 268°
2026-04-25 07:59 51.40746 12.12110 2862 ft 232 kts 268°
2026-04-25 07:59 51.40565 12.09526 3636 ft 237 kts 259°
2026-04-25 07:59 51.39779 12.07176 4432 ft 249 kts 229°
2026-04-25 08:00 51.38218 12.05841 5122 ft 269 kts 194°
2026-04-25 08:00 51.36316 12.06097 5793 ft 283 kts 165°
2026-04-25 08:00 51.34450 12.07201 6507 ft 290 kts 160°
2026-04-25 08:00 51.32565 12.08390 6885 ft 293 kts 161°
2026-04-25 08:01 51.30653 12.09560 6981 ft 295 kts 162°
2026-04-25 08:01 51.28727 12.10703 6980 ft 295 kts 162°
2026-04-25 08:01 51.26797 12.11826 6980 ft 295 kts 162°
2026-04-25 08:01 51.24864 12.12938 6985 ft 295 kts 162°
2026-04-25 08:02 51.22931 12.14043 7055 ft 295 kts 162°
2026-04-25 08:02 51.21081 12.15380 7436 ft 299 kts 148°
2026-04-25 08:02 51.19542 12.17630 8147 ft 304 kts 125°
2026-04-25 08:02 51.18508 12.20574 8917 ft 306 kts 113°
2026-04-25 08:03 51.17738 12.23750 9639 ft 309 kts 107°
2026-04-25 08:03 51.17116 12.27056 10261 ft 316 kts 104°
2026-04-25 08:03 51.16536 12.30529 10544 ft 333 kts 103°
2026-04-25 08:03 51.15936 12.34182 10790 ft 349 kts 103°
2026-04-25 08:04 51.15291 12.37992 11047 ft 364 kts 104°
2026-04-25 08:04 51.14593 12.41944 11301 ft 377 kts 105°
2026-04-25 08:04 51.13848 12.46025 11551 ft 390 kts 105°
2026-04-25 08:04 51.13063 12.50232 11822 ft 401 kts 106°
2026-04-25 08:05 51.12254 12.54519 12283 ft 406 kts 106°
2026-04-25 08:05 51.11437 12.58832 12814 ft 409 kts 106°
2026-04-25 08:05 51.10612 12.63181 13319 ft 412 kts 106°
2026-04-25 08:05 51.09781 12.67558 13854 ft 415 kts 106°
2026-04-25 08:06 51.08944 12.71964 14317 ft 418 kts 106°
2026-04-25 08:06 51.08099 12.76406 14750 ft 422 kts 106°
2026-04-25 08:06 51.07244 12.80892 15194 ft 425 kts 106°
2026-04-25 08:06 51.06382 12.85409 15640 ft 429 kts 106°
2026-04-25 08:07 51.05511 12.89964 16081 ft 433 kts 106°
2026-04-25 08:07 51.04630 12.94560 16545 ft 436 kts 106°
2026-04-25 08:07 51.03740 12.99189 16990 ft 440 kts 106°
2026-04-25 08:07 51.02843 13.03848 17434 ft 443 kts 107°
2026-04-25 08:08 51.02242 13.06957 17713 ft 445 kts 107°
2026-04-25 08:08 51.01330 13.11666 18126 ft 448 kts 107°
2026-04-25 08:08 51.00408 13.16413 18488 ft 451 kts 107°
2026-04-25 08:08 50.99479 13.21188 18845 ft 454 kts 107°
2026-04-25 08:09 50.98540 13.25997 19188 ft 457 kts 107°
2026-04-25 08:09 50.97594 13.30835 19527 ft 460 kts 107°
2026-04-25 08:09 50.96641 13.35691 19862 ft 463 kts 107°
2026-04-25 08:09 50.95680 13.40580 20204 ft 466 kts 107°
2026-04-25 08:10 50.94712 13.45498 20516 ft 469 kts 107°
2026-04-25 08:10 50.93736 13.50442 20843 ft 471 kts 107°
2026-04-25 08:10 50.92752 13.55410 21173 ft 474 kts 107°
2026-04-25 08:10 50.91759 13.60410 21484 ft 476 kts 107°
2026-04-25 08:11 50.90760 13.65427 21806 ft 479 kts 107°
2026-04-25 08:11 50.89754 13.70472 22094 ft 481 kts 107°
2026-04-25 08:11 50.88741 13.75535 22381 ft 484 kts 107°
2026-04-25 08:11 50.87720 13.80623 22679 ft 486 kts 107°
2026-04-25 08:12 50.86691 13.85740 22971 ft 489 kts 107°
2026-04-25 08:12 50.85656 13.90876 23251 ft 491 kts 108°
2026-04-25 08:12 50.84613 13.96034 23538 ft 493 kts 108°
2026-04-25 08:12 50.83537 14.01202 23763 ft 496 kts 109°
2026-04-25 08:13 50.82312 14.06319 23991 ft 498 kts 112°
2026-04-25 08:13 50.80992 14.11389 24194 ft 500 kts 113°
2026-04-25 08:13 50.79625 14.16458 24421 ft 502 kts 114°
2026-04-25 08:14 50.76862 14.26667 24746 ft 509 kts 114°
2026-04-25 08:14 50.75480 14.31827 24979 ft 510 kts 113°
2026-04-25 08:14 50.74102 14.37002 25179 ft 512 kts 113°
2026-04-25 08:14 50.72726 14.42189 25387 ft 514 kts 113°
2026-04-25 08:15 50.71345 14.47395 25581 ft 515 kts 113°
2026-04-25 08:15 50.69956 14.52624 25759 ft 517 kts 114°
2026-04-25 08:15 50.68582 14.57788 25947 ft 519 kts 114°
2026-04-25 08:15 50.67180 14.63041 26140 ft 521 kts 114°
2026-04-25 08:16 50.65771 14.68309 26320 ft 522 kts 114°
2026-04-25 08:16 50.64355 14.73586 26491 ft 524 kts 114°
2026-04-25 08:16 50.62931 14.78882 26636 ft 526 kts 114°
2026-04-25 08:16 50.61502 14.84185 26792 ft 528 kts 114°
2026-04-25 08:17 50.60064 14.89505 26968 ft 529 kts 114°
2026-04-25 08:17 50.58623 14.94829 27217 ft 528 kts 114°
2026-04-25 08:17 50.57182 15.00140 27477 ft 528 kts 114°
2026-04-25 08:17 50.55738 15.05450 27715 ft 528 kts 114°
2026-04-25 08:18 50.54291 15.10753 27929 ft 528 kts 114°
2026-04-25 08:18 50.52840 15.16062 28183 ft 528 kts 114°
2026-04-25 08:18 50.51389 15.21358 28421 ft 528 kts 114°
2026-04-25 08:18 50.49935 15.26653 28651 ft 528 kts 115°
2026-04-25 08:19 50.48477 15.31950 28899 ft 528 kts 115°
2026-04-25 08:19 50.47019 15.37239 29133 ft 528 kts 115°
2026-04-25 08:19 50.45557 15.42527 29392 ft 528 kts 115°
2026-04-25 08:19 50.44094 15.47806 29613 ft 529 kts 115°
2026-04-25 08:20 50.42622 15.53109 29765 ft 530 kts 115°
2026-04-25 08:20 50.41149 15.58400 30005 ft 530 kts 115°
2026-04-25 08:20 50.39670 15.63703 30229 ft 530 kts 115°
2026-04-25 08:20 50.38192 15.68990 30471 ft 529 kts 115°
2026-04-25 08:21 50.36716 15.74259 30709 ft 528 kts 115°
2026-04-25 08:21 50.35239 15.79522 30949 ft 527 kts 115°
2026-04-25 08:21 50.33761 15.84774 31020 ft 527 kts 115°
2026-04-25 08:22 50.30797 15.95268 31032 ft 527 kts 115°
2026-04-25 08:22 50.27821 16.05763 31031 ft 528 kts 115°
2026-04-25 08:23 50.24837 16.16238 31031 ft 527 kts 115°
2026-04-25 08:23 50.21844 16.26696 31032 ft 527 kts 115°
2026-04-25 08:24 50.18838 16.37151 31033 ft 528 kts 115°
2026-04-25 08:24 50.15822 16.47603 31021 ft 528 kts 115°
2026-04-25 08:25 50.12801 16.58026 31032 ft 527 kts 115°
2026-04-25 08:25 50.09794 16.68353 31038 ft 527 kts 115°
2026-04-25 08:26 50.06754 16.78744 31033 ft 528 kts 115°
2026-04-25 08:26 50.03703 16.89134 31024 ft 528 kts 115°
2026-04-25 08:27 50.00640 16.99518 31025 ft 528 kts 115°
2026-04-25 08:27 49.97569 17.09884 31020 ft 528 kts 115°
2026-04-25 08:28 49.94490 17.20236 31016 ft 528 kts 115°
2026-04-25 08:28 49.91403 17.30567 31018 ft 528 kts 115°
2026-04-25 08:29 49.88305 17.40891 31020 ft 528 kts 116°
2026-04-25 08:29 49.84749 17.50832 31021 ft 527 kts 121°
2026-04-25 08:30 49.80997 17.60591 31020 ft 527 kts 122°
2026-04-25 08:30 49.77202 17.70307 31028 ft 527 kts 122°
2026-04-25 08:31 49.73401 17.80014 31029 ft 528 kts 122°
2026-04-25 08:31 49.69599 17.89714 31022 ft 527 kts 122°
2026-04-25 08:32 49.65796 17.99389 31020 ft 527 kts 122°
2026-04-25 08:32 49.62010 18.08986 31019 ft 527 kts 122°
2026-04-25 08:33 49.58193 18.18629 31019 ft 527 kts 122°
2026-04-25 08:33 49.54364 18.28261 31024 ft 527 kts 122°
2026-04-25 08:34 49.50527 18.37882 31027 ft 527 kts 122°
2026-04-25 08:34 49.46678 18.47494 31026 ft 527 kts 122°
2026-04-25 08:35 49.42825 18.57087 31019 ft 527 kts 122°
2026-04-25 08:35 49.38963 18.66663 31007 ft 527 kts 122°
2026-04-25 08:36 49.35096 18.76217 31029 ft 527 kts 122°
2026-04-25 08:36 49.31220 18.85759 31013 ft 527 kts 122°
2026-04-25 08:37 49.27347 18.95264 31021 ft 526 kts 123°
2026-04-25 08:37 49.23464 19.04756 31005 ft 526 kts 122°
2026-04-25 08:38 49.19574 19.14231 31009 ft 526 kts 123°
2026-04-25 08:38 49.15676 19.23691 31011 ft 526 kts 123°
2026-04-25 08:39 49.11771 19.33138 30998 ft 526 kts 123°
2026-04-25 08:39 49.07883 19.42478 30988 ft 525 kts 123°
2026-04-25 08:40 49.03974 19.51877 30988 ft 525 kts 123°
2026-04-25 08:40 49.00052 19.61271 30986 ft 525 kts 123°
2026-04-25 08:41 48.96122 19.70639 30977 ft 525 kts 122°
2026-04-25 08:41 48.92188 19.79993 30963 ft 524 kts 123°
2026-04-25 08:42 48.88254 19.89298 30966 ft 523 kts 123°
2026-04-25 08:42 48.84318 19.98585 30970 ft 523 kts 123°
2026-04-25 08:43 48.80376 20.07870 30972 ft 523 kts 123°
2026-04-25 08:43 48.76420 20.17138 30973 ft 524 kts 123°
2026-04-25 08:44 48.72460 20.26392 30973 ft 523 kts 123°
2026-04-25 08:44 48.68490 20.35631 30975 ft 523 kts 123°
2026-04-25 08:45 48.64511 20.44844 30971 ft 522 kts 123°
2026-04-25 08:45 48.60715 20.54170 30973 ft 521 kts 116°
2026-04-25 08:46 48.57495 20.63964 30975 ft 521 kts 115°
2026-04-25 08:46 48.54394 20.73766 30981 ft 521 kts 114°
2026-04-25 08:47 48.51277 20.83625 30981 ft 520 kts 114°
2026-04-25 08:47 48.48146 20.93449 30980 ft 520 kts 114°
2026-04-25 08:48 48.45000 21.03257 30982 ft 520 kts 115°
2026-04-25 08:48 48.41843 21.13049 30984 ft 520 kts 115°
2026-04-25 08:49 48.38683 21.22812 30986 ft 519 kts 115°
2026-04-25 08:49 48.35517 21.32563 30981 ft 518 kts 115°
2026-04-25 08:50 48.32347 21.42287 30981 ft 518 kts 115°
2026-04-25 08:50 48.29167 21.52003 30984 ft 519 kts 115°
2026-04-25 08:51 48.25978 21.61711 30985 ft 518 kts 115°
2026-04-25 08:51 48.22804 21.71337 30987 ft 518 kts 115°
2026-04-25 08:52 48.19599 21.81018 30987 ft 518 kts 115°
2026-04-25 08:52 48.16389 21.90680 30990 ft 518 kts 115°
2026-04-25 08:53 48.13177 22.00313 30989 ft 517 kts 115°
2026-04-25 08:53 48.09958 22.09928 30988 ft 517 kts 115°
2026-04-25 08:54 48.06732 22.19528 30989 ft 517 kts 115°
2026-04-25 08:54 48.03496 22.29123 30988 ft 516 kts 115°
2026-04-25 08:55 48.00262 22.38676 30986 ft 516 kts 115°
2026-04-25 08:55 47.97017 22.48227 30985 ft 516 kts 115°
2026-04-25 08:56 47.93764 22.57765 30986 ft 516 kts 116°
2026-04-25 08:56 47.90507 22.67279 30991 ft 515 kts 116°
2026-04-25 08:57 47.87243 22.76783 30990 ft 515 kts 116°
2026-04-25 08:57 47.84523 22.84672 30994 ft 515 kts 116°
2026-04-25 08:58 47.80712 22.95688 30997 ft 515 kts 116°
2026-04-25 08:58 47.77429 23.05141 30995 ft 514 kts 116°
2026-04-25 08:59 47.74139 23.14579 30996 ft 514 kts 116°
2026-04-25 08:59 47.71377 23.22477 30998 ft 514 kts 116°
2026-04-25 09:00 47.68093 23.31835 31004 ft 514 kts 116°
2026-04-25 09:00 47.64955 23.41345 31006 ft 513 kts 112°
2026-04-25 09:01 47.62051 23.50995 31022 ft 512 kts 112°
2026-04-25 09:01 47.59156 23.60646 31019 ft 512 kts 112°
2026-04-25 09:02 47.56224 23.70260 31016 ft 512 kts 112°
2026-04-25 09:02 47.53268 23.79849 31018 ft 512 kts 113°
2026-04-25 09:03 47.50301 23.89423 31018 ft 512 kts 113°
2026-04-25 09:03 47.47327 23.98986 31017 ft 512 kts 113°
2026-04-25 09:04 47.44346 24.08536 31021 ft 512 kts 113°
2026-04-25 09:04 47.41359 24.18069 31020 ft 511 kts 113°
2026-04-25 09:05 47.38369 24.27585 31018 ft 511 kts 113°
2026-04-25 09:05 47.35370 24.37095 31034 ft 511 kts 113°
2026-04-25 09:06 47.32362 24.46594 31025 ft 511 kts 113°
2026-04-25 09:06 47.29347 24.56073 31026 ft 511 kts 113°
2026-04-25 09:07 47.26324 24.65553 31022 ft 511 kts 113°
2026-04-25 09:07 47.23291 24.75017 31007 ft 511 kts 114°
2026-04-25 09:08 47.20252 24.84465 31023 ft 511 kts 114°
2026-04-25 09:08 47.17209 24.93894 31018 ft 510 kts 114°
2026-04-25 09:09 47.14158 25.03315 31019 ft 511 kts 114°
2026-04-25 09:09 47.11096 25.12731 31019 ft 511 kts 114°
2026-04-25 09:10 47.08052 25.22061 31016 ft 510 kts 114°
2026-04-25 09:10 47.04979 25.31449 31015 ft 511 kts 114°
2026-04-25 09:11 47.00352 25.45514 31012 ft 510 kts 114°
2026-04-25 09:11 46.97263 25.54860 31010 ft 510 kts 114°
2026-04-25 09:12 46.94168 25.64198 31005 ft 510 kts 114°
2026-04-25 09:12 46.91063 25.73526 31001 ft 510 kts 114°
2026-04-25 09:13 46.87955 25.82838 31006 ft 509 kts 114°
2026-04-25 09:13 46.84839 25.92125 30994 ft 509 kts 114°
2026-04-25 09:14 46.81718 26.01400 31003 ft 509 kts 114°
2026-04-25 09:14 46.78594 26.10655 30980 ft 508 kts 115°
2026-04-25 09:15 46.75458 26.19892 31001 ft 508 kts 115°
2026-04-25 09:15 46.72326 26.29100 31001 ft 507 kts 115°
2026-04-25 09:16 46.69206 26.38254 30995 ft 507 kts 115°
2026-04-25 09:16 46.66062 26.47445 30992 ft 507 kts 115°
2026-04-25 09:17 46.61314 26.61188 31003 ft 507 kts 116°
2026-04-25 09:18 46.58059 26.70273 30991 ft 507 kts 116°
2026-04-25 09:18 46.54780 26.79333 30978 ft 507 kts 116°
2026-04-25 09:19 46.51501 26.88389 30992 ft 507 kts 116°
2026-04-25 09:19 46.48218 26.97440 30987 ft 506 kts 116°
2026-04-25 09:20 46.44934 27.06468 30995 ft 506 kts 116°
2026-04-25 09:20 46.41639 27.15496 30989 ft 506 kts 116°
2026-04-25 09:21 46.38343 27.24499 31022 ft 505 kts 116°
2026-04-25 09:21 46.35040 27.33491 31026 ft 505 kts 116°
2026-04-25 09:22 46.31733 27.42461 31011 ft 505 kts 116°
2026-04-25 09:22 46.28422 27.51414 31012 ft 505 kts 116°
2026-04-25 09:23 46.25106 27.60352 31021 ft 504 kts 116°
2026-04-25 09:23 46.21783 27.69276 31040 ft 504 kts 116°
2026-04-25 09:24 46.18478 27.78125 31027 ft 504 kts 117°
2026-04-25 09:24 46.15149 27.87006 31023 ft 503 kts 117°
2026-04-25 09:25 46.11819 27.95862 31029 ft 502 kts 117°
2026-04-25 09:25 46.08481 28.04711 31026 ft 503 kts 117°
2026-04-25 09:26 46.05136 28.13554 31030 ft 502 kts 117°
2026-04-25 09:26 46.01789 28.22370 31037 ft 502 kts 117°
2026-04-25 09:27 45.98435 28.31174 31030 ft 502 kts 117°
2026-04-25 09:27 45.95074 28.39967 31030 ft 502 kts 117°
2026-04-25 09:28 45.91705 28.48757 31029 ft 502 kts 117°
2026-04-25 09:28 45.88330 28.57532 31033 ft 502 kts 117°
2026-04-25 09:29 45.84949 28.66296 31039 ft 502 kts 118°
2026-04-25 09:29 45.81573 28.75057 31037 ft 502 kts 117°
2026-04-25 09:30 45.78301 28.83874 31034 ft 501 kts 116°
2026-04-25 09:30 45.75060 28.92710 31037 ft 501 kts 116°
2026-04-25 09:31 45.71825 29.01475 31043 ft 501 kts 117°
2026-04-25 09:31 45.68555 29.10277 31043 ft 500 kts 117°
2026-04-25 09:32 45.65281 29.19048 31034 ft 500 kts 117°
2026-04-25 09:32 45.61999 29.27812 31035 ft 500 kts 117°
2026-04-25 09:33 45.58716 29.36551 31049 ft 499 kts 117°
2026-04-25 09:33 45.55430 29.45272 31050 ft 498 kts 117°
2026-04-25 09:34 45.52142 29.53970 31044 ft 498 kts 117°
2026-04-25 09:34 45.48846 29.62662 31046 ft 498 kts 117°
2026-04-25 09:35 45.45547 29.71340 31048 ft 498 kts 117°
2026-04-25 09:35 45.42244 29.79994 31056 ft 497 kts 117°
2026-04-25 09:36 45.38937 29.88631 31059 ft 497 kts 117°
2026-04-25 09:36 45.35626 29.97255 31078 ft 497 kts 118°
2026-04-25 09:37 45.32307 30.05870 31076 ft 496 kts 118°
2026-04-25 09:37 45.29011 30.14401 31076 ft 496 kts 118°
2026-04-25 09:38 45.25685 30.22983 31080 ft 496 kts 118°
2026-04-25 09:38 45.22351 30.31556 31074 ft 496 kts 118°
2026-04-25 09:39 45.19016 30.40109 31075 ft 495 kts 118°
2026-04-25 09:39 45.15674 30.48650 31076 ft 495 kts 118°
2026-04-25 09:40 45.10652 30.61439 31088 ft 495 kts 118°
2026-04-25 09:40 45.07294 30.69957 31080 ft 495 kts 118°
2026-04-25 09:41 45.03935 30.78451 31086 ft 495 kts 118°
2026-04-25 09:41 45.02254 30.82694 31187 ft 495 kts 118°
2026-04-25 09:41 45.00568 30.86939 31334 ft 495 kts 118°
2026-04-25 09:42 44.98908 30.91117 31483 ft 494 kts 118°
2026-04-25 09:42 44.97223 30.95348 31627 ft 494 kts 118°
2026-04-25 09:42 44.95541 30.99568 31782 ft 493 kts 118°
2026-04-25 09:42 44.93857 31.03783 31947 ft 493 kts 118°
2026-04-25 09:43 44.92175 31.07988 32097 ft 492 kts 118°
2026-04-25 09:43 44.90491 31.12193 32247 ft 492 kts 118°
2026-04-25 09:43 44.88809 31.16387 32404 ft 491 kts 118°
2026-04-25 09:43 44.87124 31.20580 32566 ft 491 kts 118°
2026-04-25 09:44 44.85439 31.24768 32712 ft 490 kts 118°
2026-04-25 09:44 44.83755 31.28947 32869 ft 490 kts 118°
2026-04-25 09:44 44.82073 31.33116 33035 ft 490 kts 118°
2026-04-25 09:44 44.80386 31.37291 33078 ft 490 kts 118°
2026-04-25 09:45 44.77015 31.45613 33085 ft 489 kts 118°
2026-04-25 09:45 44.73639 31.53923 33085 ft 488 kts 118°
2026-04-25 09:46 44.70267 31.62200 33083 ft 488 kts 118°
2026-04-25 09:46 44.66889 31.70465 33084 ft 488 kts 118°
2026-04-25 09:47 44.63507 31.78719 33084 ft 488 kts 118°
2026-04-25 09:47 44.60117 31.86966 33083 ft 488 kts 118°
2026-04-25 09:48 44.56721 31.95203 33080 ft 488 kts 118°
2026-04-25 09:48 44.53686 32.01861 33083 ft 489 kts 128°
2026-04-25 09:49 44.48870 32.08594 33084 ft 490 kts 138°
2026-04-25 09:49 44.43695 32.14808 33086 ft 491 kts 140°
2026-04-25 09:50 44.38455 32.20935 33083 ft 491 kts 140°
2026-04-25 09:50 44.33225 32.27070 33083 ft 491 kts 140°
2026-04-25 09:51 44.28008 32.33217 33084 ft 491 kts 139°
2026-04-25 09:51 44.22793 32.39360 33082 ft 490 kts 139°
2026-04-25 09:52 44.17586 32.45479 33083 ft 489 kts 140°
2026-04-25 09:52 44.12443 32.51585 33084 ft 489 kts 139°
2026-04-25 09:53 44.07308 32.57798 33086 ft 489 kts 139°
2026-04-25 09:53 44.02171 32.64010 33086 ft 489 kts 139°
2026-04-25 09:54 43.97026 32.70202 33088 ft 489 kts 139°
2026-04-25 09:54 43.91876 32.76377 33084 ft 489 kts 139°
2026-04-25 09:55 43.86716 32.82544 33086 ft 490 kts 139°
2026-04-25 09:55 43.81554 32.88700 33086 ft 490 kts 139°
2026-04-25 09:56 43.76390 32.94843 33085 ft 489 kts 140°
2026-04-25 09:56 43.71229 33.00969 33086 ft 489 kts 140°
2026-04-25 09:57 43.66067 33.07082 33088 ft 489 kts 140°
2026-04-25 09:57 43.60904 33.13182 33092 ft 489 kts 141°
2026-04-25 09:58 43.55734 33.19254 33069 ft 488 kts 141°
2026-04-25 09:58 43.50573 33.25295 33088 ft 486 kts 141°
2026-04-25 09:59 43.45416 33.31318 33094 ft 486 kts 141°
2026-04-25 09:59 43.40262 33.37325 33094 ft 486 kts 142°
2026-04-25 10:00 43.35105 33.43323 33097 ft 485 kts 142°
2026-04-25 10:00 43.29947 33.49309 33101 ft 486 kts 142°
2026-04-25 10:01 43.24817 33.55248 33096 ft 485 kts 143°
2026-04-25 10:01 43.19657 33.61208 33091 ft 485 kts 143°
2026-04-25 10:02 43.14492 33.67160 33101 ft 485 kts 143°
2026-04-25 10:02 43.09325 33.73101 33101 ft 485 kts 143°
2026-04-25 10:03 43.04156 33.79030 33098 ft 485 kts 143°
2026-04-25 10:03 42.98980 33.84955 33107 ft 485 kts 143°
2026-04-25 10:04 42.93805 33.90865 33103 ft 485 kts 143°
2026-04-25 10:04 42.88634 33.96758 33101 ft 484 kts 143°
2026-04-25 10:05 42.83467 34.02633 33101 ft 483 kts 143°
2026-04-25 10:05 42.78768 34.09111 33103 ft 489 kts 128°
2026-04-25 10:06 42.75598 34.17311 33104 ft 492 kts 114°
2026-04-25 10:06 42.73110 34.25984 33109 ft 492 kts 112°
2026-04-25 10:07 42.70721 34.34709 33114 ft 492 kts 112°
2026-04-25 10:07 42.68300 34.43412 33110 ft 492 kts 112°
2026-04-25 10:08 42.65844 34.52097 33111 ft 492 kts 112°
2026-04-25 10:08 42.63370 34.60771 33109 ft 492 kts 113°
2026-04-25 10:09 42.60891 34.69433 33109 ft 492 kts 113°
2026-04-25 10:09 42.58407 34.78090 33109 ft 492 kts 113°
2026-04-25 10:10 42.55916 34.86741 33116 ft 492 kts 113°
2026-04-25 10:10 42.53418 34.95387 33117 ft 492 kts 113°
2026-04-25 10:11 42.50915 35.04027 33119 ft 493 kts 113°
2026-04-25 10:11 42.48399 35.12674 33113 ft 493 kts 114°
2026-04-25 10:12 42.45895 35.21256 33114 ft 493 kts 114°
2026-04-25 10:13 42.42083 35.34264 33121 ft 493 kts 114°
2026-04-25 10:13 42.39568 35.42813 33125 ft 492 kts 114°
2026-04-25 10:14 42.37033 35.51397 33127 ft 491 kts 114°
2026-04-25 10:14 42.34493 35.59969 33123 ft 491 kts 114°
2026-04-25 10:15 42.31946 35.68538 33123 ft 491 kts 114°
2026-04-25 10:15 42.29401 35.77075 33125 ft 489 kts 114°
2026-04-25 10:16 42.26853 35.85592 33131 ft 489 kts 114°
2026-04-25 10:16 42.24296 35.94108 33131 ft 489 kts 114°
2026-04-25 10:17 42.21736 36.02608 33143 ft 488 kts 114°
2026-04-25 10:17 42.19174 36.11087 33139 ft 488 kts 114°
2026-04-25 10:18 42.16607 36.19557 33142 ft 488 kts 114°
2026-04-25 10:18 42.14033 36.28022 33146 ft 488 kts 114°
2026-04-25 10:19 42.11453 36.36476 33126 ft 488 kts 114°
2026-04-25 10:19 42.08867 36.44926 33133 ft 488 kts 114°
2026-04-25 10:20 42.06291 36.53315 33138 ft 488 kts 114°
2026-04-25 10:20 42.03693 36.61749 33152 ft 488 kts 114°
2026-04-25 10:21 42.01090 36.70175 33152 ft 488 kts 114°
2026-04-25 10:21 41.98478 36.78600 33150 ft 488 kts 114°
2026-04-25 10:22 41.95862 36.87010 33140 ft 488 kts 114°
2026-04-25 10:22 41.93239 36.95418 33155 ft 488 kts 114°
2026-04-25 10:23 41.90919 37.03974 33143 ft 489 kts 103°
2026-04-25 10:23 41.90226 37.13042 33150 ft 489 kts 92°
2026-04-25 10:24 41.90061 37.22168 33146 ft 489 kts 90°
2026-04-25 10:24 41.89973 37.31282 33154 ft 488 kts 90°
2026-04-25 10:25 41.89857 37.40408 33152 ft 489 kts 90°
2026-04-25 10:25 41.89710 37.49540 33157 ft 489 kts 91°
2026-04-25 10:26 41.89547 37.58672 33151 ft 489 kts 91°
2026-04-25 10:26 41.89377 37.67806 33163 ft 489 kts 91°
2026-04-25 10:27 41.89202 37.76926 33165 ft 489 kts 91°
2026-04-25 10:27 41.89019 37.86048 33161 ft 489 kts 91°
2026-04-25 10:28 41.88829 37.95176 33168 ft 490 kts 91°
2026-04-25 10:28 41.88632 38.04325 33168 ft 491 kts 91°
2026-04-25 10:29 41.88428 38.13422 33170 ft 491 kts 91°
2026-04-25 10:29 41.88216 38.22575 33166 ft 491 kts 91°
2026-04-25 10:30 41.87995 38.31788 33170 ft 491 kts 91°
2026-04-25 10:30 41.87770 38.40889 33172 ft 491 kts 91°
2026-04-25 10:31 41.87536 38.50045 33178 ft 491 kts 91°
2026-04-25 10:31 41.87295 38.59202 33178 ft 491 kts 91°
2026-04-25 10:32 41.87046 38.68362 33176 ft 491 kts 91°
2026-04-25 10:32 41.86790 38.77514 33179 ft 491 kts 91°
2026-04-25 10:33 41.86527 38.86669 33175 ft 491 kts 91°
2026-04-25 10:33 41.86256 38.95829 33180 ft 492 kts 91°
2026-04-25 10:34 41.85978 39.05003 33187 ft 492 kts 91°
2026-04-25 10:34 41.85692 39.14187 33186 ft 493 kts 91°
2026-04-25 10:35 41.85398 39.23388 33182 ft 494 kts 91°
2026-04-25 10:35 41.85097 39.32588 33184 ft 494 kts 91°
2026-04-25 10:36 41.84790 39.41742 33188 ft 494 kts 92°
2026-04-25 10:36 41.84474 39.50947 33185 ft 494 kts 92°
2026-04-25 10:37 41.84151 39.60160 33192 ft 494 kts 92°
2026-04-25 10:37 41.83820 39.69367 33192 ft 495 kts 92°
2026-04-25 10:38 41.83482 39.78608 33195 ft 496 kts 92°
2026-04-25 10:38 41.83136 39.87850 33193 ft 497 kts 92°
2026-04-25 10:39 41.82782 39.97096 33190 ft 497 kts 92°
2026-04-25 10:39 41.82421 40.06344 33193 ft 497 kts 92°
2026-04-25 10:40 41.82115 40.14029 33188 ft 497 kts 92°
2026-04-25 10:40 41.81739 40.23273 33208 ft 497 kts 92°
2026-04-25 10:41 41.81355 40.32530 33196 ft 498 kts 92°
2026-04-25 10:41 41.80963 40.41807 33197 ft 499 kts 92°
2026-04-25 10:42 41.80563 40.51079 33192 ft 499 kts 92°
2026-04-25 10:42 41.80156 40.60358 33196 ft 498 kts 92°
2026-04-25 10:43 41.79735 40.69628 33199 ft 498 kts 92°
2026-04-25 10:43 41.79285 40.78901 33197 ft 498 kts 92°
2026-04-25 10:44 41.78823 40.88174 33199 ft 500 kts 92°
2026-04-25 10:44 41.78355 40.97466 33191 ft 500 kts 93°
2026-04-25 10:45 41.77883 41.06730 33195 ft 497 kts 93°
2026-04-25 10:45 41.77404 41.15972 33199 ft 497 kts 93°
2026-04-25 10:46 41.76919 41.25206 33204 ft 497 kts 93°
2026-04-25 10:46 41.76425 41.34442 33206 ft 497 kts 93°
2026-04-25 10:47 41.75924 41.43681 33208 ft 498 kts 94°
2026-04-25 10:47 41.75414 41.52944 33211 ft 500 kts 94°
2026-04-25 10:48 41.74896 41.62226 33211 ft 500 kts 94°
2026-04-25 10:48 41.74374 41.71446 33207 ft 500 kts 94°
2026-04-25 10:49 41.73837 41.80787 33201 ft 500 kts 94°
2026-04-25 10:49 41.73300 41.90004 33201 ft 500 kts 94°
2026-04-25 10:50 41.72746 41.99339 33203 ft 500 kts 94°
2026-04-25 10:50 41.72194 42.08565 33199 ft 501 kts 94°
2026-04-25 10:51 41.71629 42.17870 33203 ft 502 kts 94°
2026-04-25 10:51 41.71054 42.27174 33211 ft 501 kts 94°
2026-04-25 10:52 41.70473 42.36471 33205 ft 501 kts 94°
2026-04-25 10:52 41.69887 42.45769 33208 ft 501 kts 95°
2026-04-25 10:53 41.69289 42.55062 33215 ft 501 kts 95°
2026-04-25 10:53 41.68685 42.64357 33207 ft 503 kts 95°
2026-04-25 10:54 41.68073 42.73689 33214 ft 504 kts 95°
2026-04-25 10:54 41.67451 42.83019 33201 ft 504 kts 95°
2026-04-25 10:55 41.66820 42.92359 33200 ft 504 kts 95°
2026-04-25 10:55 41.66181 43.01688 33181 ft 504 kts 95°
2026-04-25 10:56 41.65533 43.11035 33187 ft 506 kts 95°
2026-04-25 10:56 41.64878 43.20398 33190 ft 506 kts 95°
2026-04-25 10:57 41.64213 43.29782 33187 ft 507 kts 95°
2026-04-25 10:57 41.63539 43.39165 33189 ft 507 kts 95°
2026-04-25 10:58 41.62855 43.48556 33189 ft 508 kts 95°
2026-04-25 10:58 41.62167 43.57951 33190 ft 508 kts 95°
2026-04-25 10:59 41.61473 43.67349 33183 ft 508 kts 95°
2026-04-25 10:59 41.60774 43.76739 33179 ft 508 kts 95°
2026-04-25 11:00 41.60066 43.86124 33170 ft 508 kts 95°
2026-04-25 11:00 41.59347 43.95549 33169 ft 511 kts 95°
2026-04-25 11:01 41.58619 44.04996 33153 ft 511 kts 95°
2026-04-25 11:01 41.57887 44.14376 33150 ft 511 kts 95°
2026-04-25 11:02 41.56883 44.23758 33141 ft 511 kts 105°
2026-04-25 11:02 41.54846 44.32865 33145 ft 514 kts 108°
2026-04-25 11:03 41.52599 44.41939 33147 ft 515 kts 109°
2026-04-25 11:03 41.50315 44.51007 33142 ft 515 kts 109°
2026-04-25 11:04 41.48040 44.60069 33141 ft 515 kts 109°
2026-04-25 11:04 41.45770 44.69129 33144 ft 515 kts 109°
2026-04-25 11:05 41.43497 44.78182 33145 ft 515 kts 109°
2026-04-25 11:05 41.41216 44.87231 33134 ft 515 kts 110°
2026-04-25 11:06 41.38923 44.96288 33139 ft 517 kts 110°
2026-04-25 11:06 41.36619 45.05356 33142 ft 517 kts 110°
2026-04-25 11:07 41.34306 45.14419 33133 ft 517 kts 110°
2026-04-25 11:07 41.31985 45.23477 33135 ft 517 kts 111°
2026-04-25 11:08 41.29654 45.32534 33140 ft 518 kts 111°
2026-04-25 11:08 41.27314 45.41594 33125 ft 520 kts 111°
2026-04-25 11:09 41.24949 45.50715 33115 ft 523 kts 112°
2026-04-25 11:09 41.22572 45.59846 33123 ft 523 kts 112°
2026-04-25 11:10 41.20188 45.68973 33122 ft 523 kts 112°
2026-04-25 11:10 41.17787 45.78093 33110 ft 523 kts 112°
2026-04-25 11:11 41.15380 45.87205 33106 ft 525 kts 113°
2026-04-25 11:11 41.12970 45.96296 33101 ft 526 kts 113°
2026-04-25 11:12 41.10534 46.05450 33099 ft 526 kts 113°
2026-04-25 11:12 41.08092 46.14592 33088 ft 527 kts 114°
2026-04-25 11:13 41.05629 46.23780 33082 ft 531 kts 114°
2026-04-25 11:13 41.03155 46.32993 33082 ft 531 kts 114°
2026-04-25 11:14 41.00693 46.42215 33083 ft 532 kts 114°
2026-04-25 11:14 40.98220 46.51457 33080 ft 533 kts 115°
2026-04-25 11:15 40.95733 46.60704 33074 ft 534 kts 115°
2026-04-25 11:15 40.93236 46.69954 33071 ft 534 kts 115°
2026-04-25 11:16 40.90837 46.84362 33063 ft 545 kts 90°
2026-04-25 11:16 40.92049 46.94266 33058 ft 547 kts 77°
2026-04-25 11:17 40.93864 47.04051 33056 ft 549 kts 76°
2026-04-25 11:17 40.95754 47.13856 33050 ft 551 kts 76°
2026-04-25 11:18 40.97599 47.23704 33049 ft 551 kts 76°
2026-04-25 11:18 40.99404 47.33560 33040 ft 552 kts 77°
2026-04-25 11:19 41.01194 47.43441 33014 ft 553 kts 77°
2026-04-25 11:19 41.02980 47.53349 33026 ft 553 kts 77°
2026-04-25 11:20 41.04758 47.63261 33011 ft 553 kts 77°
2026-04-25 11:20 41.06529 47.73188 33013 ft 555 kts 77°
2026-04-25 11:21 41.08303 47.83170 33018 ft 557 kts 77°
2026-04-25 11:21 41.10051 47.93093 33008 ft 556 kts 78°
2026-04-25 11:22 41.11882 48.01329 33022 ft 555 kts 70°
2026-04-25 11:22 41.14916 48.12498 33036 ft 552 kts 69°
2026-04-25 11:23 41.17591 48.22049 33055 ft 552 kts 69°
2026-04-25 11:23 41.20256 48.31613 33094 ft 553 kts 69°
2026-04-25 11:24 41.22910 48.41224 33065 ft 555 kts 70°
2026-04-25 11:24 41.25552 48.50850 33108 ft 554 kts 70°
2026-04-25 11:25 41.28179 48.60468 33151 ft 554 kts 70°
2026-04-25 11:25 41.30805 48.70119 33137 ft 556 kts 70°
2026-04-25 11:26 41.33004 48.78224 33147 ft 556 kts 70°
2026-04-25 11:26 41.35623 48.87909 33148 ft 556 kts 71°
2026-04-25 11:27 41.38236 48.97617 33141 ft 558 kts 71°
2026-04-25 11:27 41.40407 49.05712 33143 ft 559 kts 71°
2026-04-25 11:28 41.43436 49.17053 33138 ft 559 kts 71°
2026-04-25 11:28 41.46036 49.26830 33133 ft 559 kts 71°
2026-04-25 11:29 41.48625 49.36603 33134 ft 559 kts 71°
2026-04-25 11:29 41.51206 49.46385 33131 ft 559 kts 71°
2026-04-25 11:30 41.53781 49.56182 33134 ft 560 kts 72°
2026-04-25 11:30 41.56350 49.65996 33126 ft 560 kts 72°
2026-04-25 11:31 41.58911 49.75821 33122 ft 560 kts 72°
2026-04-25 11:31 41.61465 49.85656 33131 ft 560 kts 72°
2026-04-25 11:32 41.64012 49.95504 33113 ft 561 kts 72°
2026-04-25 11:32 41.66552 50.05370 33101 ft 561 kts 72°
2026-04-25 11:33 41.69083 50.15242 33111 ft 561 kts 72°
2026-04-25 11:33 41.71612 50.25146 33104 ft 563 kts 73°
2026-04-25 11:34 41.74120 50.35003 33107 ft 563 kts 73°
2026-04-25 11:34 41.76636 50.44937 33108 ft 563 kts 73°
2026-04-25 11:35 41.79144 50.54881 33097 ft 564 kts 73°
2026-04-25 11:35 41.81647 50.64848 33094 ft 564 kts 73°
2026-04-25 11:36 41.84142 50.74823 33116 ft 564 kts 73°
2026-04-25 11:36 41.86632 50.84820 33090 ft 566 kts 73°
2026-04-25 11:37 41.89116 50.94838 33091 ft 566 kts 73°
2026-04-25 11:37 41.91594 51.04873 33083 ft 566 kts 74°
2026-04-25 11:38 41.94052 51.14872 33069 ft 567 kts 74°
2026-04-25 11:38 41.96519 51.24948 33083 ft 568 kts 74°
2026-04-25 11:39 41.98979 51.35040 33076 ft 569 kts 74°
2026-04-25 11:39 42.01584 51.45085 33067 ft 571 kts 65°
2026-04-25 11:40 42.05583 51.54308 33068 ft 571 kts 57°
2026-04-25 11:40 42.09897 51.63285 33062 ft 571 kts 56°
2026-04-25 11:41 42.14273 51.72225 33062 ft 572 kts 56°
2026-04-25 11:41 42.18629 51.81199 33050 ft 572 kts 56°
2026-04-25 11:42 42.22961 51.90207 33049 ft 572 kts 56°
2026-04-25 11:42 42.27281 51.99234 33046 ft 573 kts 56°
2026-04-25 11:43 42.31597 52.08280 33052 ft 573 kts 56°
2026-04-25 11:43 42.35904 52.17331 33039 ft 573 kts 56°
2026-04-25 11:44 42.40209 52.26405 33037 ft 573 kts 56°
2026-04-25 11:44 42.44503 52.35481 33037 ft 573 kts 56°
2026-04-25 11:45 42.48793 52.44578 33038 ft 574 kts 57°
2026-04-25 11:45 42.53087 52.53710 33037 ft 574 kts 57°
2026-04-25 11:46 42.57374 52.62856 33037 ft 575 kts 57°
2026-04-25 11:46 42.61653 52.72014 33031 ft 575 kts 57°
2026-04-25 11:47 42.65925 52.81184 33032 ft 575 kts 57°
2026-04-25 11:47 42.70193 52.90374 33031 ft 575 kts 57°
2026-04-25 11:48 42.74455 52.99580 33029 ft 576 kts 57°
2026-04-25 11:48 42.78714 53.08806 33029 ft 576 kts 57°
2026-04-25 11:49 42.82966 53.18049 33026 ft 576 kts 57°
2026-04-25 11:49 42.87214 53.27310 33022 ft 576 kts 57°
2026-04-25 11:50 42.91428 53.36528 33021 ft 576 kts 57°
2026-04-25 11:50 42.95664 53.45821 33012 ft 576 kts 57°
2026-04-25 11:51 42.99794 53.55207 33006 ft 577 kts 66°
2026-04-25 11:51 43.01177 53.60321 33013 ft 572 kts 79°
2026-04-25 11:51 43.01890 53.65633 33018 ft 567 kts 86°
2026-04-25 11:52 43.02797 53.76318 33016 ft 565 kts 90°
2026-04-25 11:52 43.03461 53.87028 33013 ft 566 kts 91°
2026-04-25 11:53 43.04117 53.97756 33012 ft 566 kts 90°
2026-04-25 11:53 43.04802 54.08484 33000 ft 567 kts 90°
2026-04-25 11:54 43.05497 54.19230 32999 ft 567 kts 90°
2026-04-25 11:55 43.06523 54.35337 32989 ft 567 kts 90°
2026-04-25 11:55 43.07191 54.46073 32988 ft 567 kts 90°
2026-04-25 11:56 43.07849 54.56816 32957 ft 567 kts 90°
2026-04-25 11:56 43.08496 54.67544 32977 ft 565 kts 90°
2026-04-25 11:57 43.09132 54.78266 32978 ft 565 kts 90°
2026-04-25 11:57 43.09758 54.88974 32973 ft 564 kts 90°
2026-04-25 11:58 43.10372 54.99667 32967 ft 563 kts 90°
2026-04-25 11:58 43.10976 55.10344 32968 ft 563 kts 91°
2026-04-25 11:59 43.11565 55.20959 32965 ft 563 kts 91°
2026-04-25 11:59 43.12149 55.31638 32950 ft 563 kts 91°
2026-04-25 12:00 43.13005 55.47662 32953 ft 563 kts 91°
2026-04-25 12:01 43.13840 55.63663 32943 ft 559 kts 91°
2026-04-25 12:01 43.14380 55.74266 32945 ft 558 kts 91°
2026-04-25 12:02 43.15169 55.90172 32934 ft 558 kts 91°
2026-04-25 12:02 43.15975 56.00772 32930 ft 565 kts 80°
2026-04-25 12:03 43.17956 56.11198 32933 ft 566 kts 77°
2026-04-25 12:03 43.20146 56.21572 32914 ft 566 kts 76°
2026-04-25 12:04 43.22359 56.31923 32913 ft 566 kts 76°
2026-04-25 12:04 43.24525 56.42215 32903 ft 565 kts 77°
2026-04-25 12:05 43.26678 56.52582 32913 ft 565 kts 77°
2026-04-25 12:05 43.28818 56.62951 32906 ft 565 kts 77°
2026-04-25 12:06 43.30946 56.73314 32902 ft 563 kts 77°
2026-04-25 12:06 43.33059 56.83654 32892 ft 562 kts 77°
2026-04-25 12:07 43.35161 56.93994 32896 ft 562 kts 77°
2026-04-25 12:07 43.37253 57.04336 32889 ft 562 kts 77°
2026-04-25 12:08 43.39339 57.14701 32892 ft 562 kts 77°
2026-04-25 12:08 43.41413 57.25060 32883 ft 562 kts 77°
2026-04-25 12:09 43.43478 57.35428 32884 ft 562 kts 77°
2026-04-25 12:09 43.45536 57.45809 32884 ft 562 kts 77°
2026-04-25 12:10 43.47583 57.56195 32885 ft 562 kts 77°
2026-04-25 12:10 43.49622 57.66596 32881 ft 563 kts 77°
2026-04-25 12:11 43.51651 57.77002 32881 ft 563 kts 77°
2026-04-25 12:11 43.53674 57.87428 32876 ft 563 kts 77°
2026-04-25 12:12 43.55346 57.96090 32877 ft 563 kts 77°
2026-04-25 12:12 43.57686 58.08276 32878 ft 562 kts 77°
2026-04-25 12:13 43.59678 58.18709 32872 ft 562 kts 77°
2026-04-25 12:13 43.61658 58.29145 32870 ft 562 kts 77°
2026-04-25 12:14 43.63612 58.39522 32870 ft 562 kts 77°
2026-04-25 12:14 43.65534 58.49966 32867 ft 560 kts 77°
2026-04-25 12:15 43.67437 58.60389 32863 ft 559 kts 77°
2026-04-25 12:15 43.69023 58.69108 32861 ft 558 kts 77°
2026-04-25 12:16 43.70908 58.79519 32859 ft 558 kts 77°
2026-04-25 12:16 43.72786 58.89941 32858 ft 558 kts 77°
2026-04-25 12:17 43.74652 59.00359 32856 ft 558 kts 77°
2026-04-25 12:17 43.76533 59.10781 32857 ft 558 kts 77°
2026-04-25 12:18 43.78438 59.21191 32853 ft 558 kts 77°
2026-04-25 12:18 43.80337 59.31608 32850 ft 558 kts 77°
2026-04-25 12:19 43.83157 59.47236 32848 ft 558 kts 77°
2026-04-25 12:20 43.85010 59.57594 32848 ft 558 kts 77°
2026-04-25 12:20 43.86866 59.68025 32848 ft 557 kts 77°
2026-04-25 12:21 43.88691 59.78462 32847 ft 557 kts 78°
2026-04-25 12:21 43.90483 59.88904 32842 ft 557 kts 78°
2026-04-25 12:22 43.92266 59.99357 32846 ft 556 kts 77°
2026-04-25 12:22 43.94040 60.09794 32839 ft 555 kts 78°
2026-04-25 12:23 43.95803 60.20225 32848 ft 555 kts 78°
2026-04-25 12:23 43.97555 60.30653 32841 ft 553 kts 77°
2026-04-25 12:24 43.99288 60.41032 32846 ft 551 kts 77°
2026-04-25 12:24 44.01008 60.51391 32832 ft 550 kts 77°
2026-04-25 12:25 44.02718 60.61748 32845 ft 550 kts 77°
2026-04-25 12:25 44.04416 60.72107 32826 ft 549 kts 77°
2026-04-25 12:26 44.06100 60.82431 32833 ft 547 kts 77°
2026-04-25 12:26 44.07773 60.92757 32826 ft 547 kts 77°
2026-04-25 12:27 44.09425 61.03010 32818 ft 547 kts 77°
2026-04-25 12:27 44.11075 61.13324 32823 ft 545 kts 77°
2026-04-25 12:28 44.12710 61.23603 32830 ft 544 kts 77°
2026-04-25 12:28 44.14102 61.33946 32831 ft 543 kts 86°
2026-04-25 12:29 44.14704 61.44432 32821 ft 542 kts 88°
2026-04-25 12:29 44.15157 61.54887 32827 ft 541 kts 88°
2026-04-25 12:30 44.15582 61.65338 32826 ft 541 kts 88°
2026-04-25 12:30 44.16012 61.75790 32940 ft 540 kts 88°
2026-04-25 12:30 44.16228 61.81005 33098 ft 539 kts 88°
2026-04-25 12:31 44.16443 61.86209 33260 ft 538 kts 88°
2026-04-25 12:31 44.16656 61.91404 33420 ft 537 kts 88°
2026-04-25 12:31 44.16865 61.96587 33582 ft 536 kts 88°
2026-04-25 12:31 44.17073 62.01771 33743 ft 536 kts 88°
2026-04-25 12:32 44.17277 62.06959 33901 ft 536 kts 88°
2026-04-25 12:32 44.17479 62.12135 34036 ft 535 kts 88°
2026-04-25 12:32 44.17677 62.17309 34180 ft 534 kts 88°
2026-04-25 12:32 44.17874 62.22472 34315 ft 533 kts 88°
2026-04-25 12:33 44.18066 62.27614 34436 ft 531 kts 88°
2026-04-25 12:33 44.18255 62.32740 34555 ft 529 kts 88°
2026-04-25 12:33 44.18437 62.37863 34675 ft 528 kts 88°
2026-04-25 12:33 44.18612 62.42897 34791 ft 528 kts 88°
2026-04-25 12:34 44.18785 62.47999 34839 ft 527 kts 88°
2026-04-25 12:34 44.19126 62.58196 34843 ft 527 kts 88°
2026-04-25 12:35 44.19458 62.68386 34844 ft 525 kts 88°
2026-04-25 12:35 44.19780 62.78530 34842 ft 524 kts 88°
2026-04-25 12:36 44.20094 62.88671 34841 ft 524 kts 88°
2026-04-25 12:36 44.20399 62.98809 34849 ft 524 kts 88°
2026-04-25 12:37 44.20694 63.08935 34847 ft 521 kts 88°
2026-04-25 12:37 44.20967 63.19027 34845 ft 521 kts 89°
2026-04-25 12:38 44.21118 63.29115 34844 ft 521 kts 90°
2026-04-25 12:38 44.21221 63.39203 34849 ft 521 kts 90°
2026-04-25 12:39 44.21323 63.49285 34845 ft 519 kts 90°
2026-04-25 12:39 44.21426 63.59316 34848 ft 517 kts 90°
2026-04-25 12:40 44.21523 63.69330 34849 ft 516 kts 90°
2026-04-25 12:40 44.21612 63.79330 34848 ft 516 kts 90°
2026-04-25 12:41 44.21691 63.89324 34861 ft 515 kts 90°
2026-04-25 12:41 44.21762 63.99283 34861 ft 514 kts 90°
2026-04-25 12:42 44.21823 64.09238 34850 ft 514 kts 90°
2026-04-25 12:42 44.21912 64.19126 34850 ft 514 kts 88°
2026-04-25 12:43 44.22318 64.29069 34861 ft 513 kts 86°
2026-04-25 12:43 44.23074 64.43928 34861 ft 512 kts 86°
2026-04-25 12:44 44.23533 64.53833 34850 ft 512 kts 87°
2026-04-25 12:45 44.24174 64.68695 34848 ft 511 kts 87°
2026-04-25 12:45 44.24790 64.83520 34852 ft 510 kts 87°
2026-04-25 12:46 44.25169 64.93400 34858 ft 510 kts 87°
2026-04-25 12:46 44.25531 65.03282 34853 ft 510 kts 88°
2026-04-25 12:47 44.25885 65.13155 34860 ft 509 kts 88°
2026-04-25 12:47 44.26233 65.23018 34862 ft 509 kts 88°
2026-04-25 12:48 44.26573 65.32876 34857 ft 509 kts 88°
2026-04-25 12:48 44.26904 65.42735 34854 ft 509 kts 88°
2026-04-25 12:49 44.27226 65.52573 34846 ft 506 kts 88°
2026-04-25 12:49 44.27538 65.62351 34858 ft 504 kts 88°
2026-04-25 12:50 44.27841 65.72114 34857 ft 504 kts 88°
2026-04-25 12:50 44.28135 65.81877 34858 ft 504 kts 88°
2026-04-25 12:51 44.28421 65.91630 34865 ft 502 kts 88°
2026-04-25 12:51 44.28698 66.01371 34863 ft 502 kts 88°
2026-04-25 12:52 44.28966 66.11115 34870 ft 502 kts 88°
2026-04-25 12:52 44.29225 66.20788 34874 ft 502 kts 89°
2026-04-25 12:53 44.29479 66.30541 34884 ft 503 kts 89°
2026-04-25 12:53 44.29723 66.40306 34899 ft 503 kts 89°
2026-04-25 12:54 44.29886 66.50068 34891 ft 503 kts 90°
2026-04-25 12:54 44.29950 66.59827 34892 ft 502 kts 90°
2026-04-25 12:55 44.29984 66.66350 34898 ft 502 kts 90°
2026-04-25 12:55 44.30056 66.79314 34914 ft 502 kts 90°
2026-04-25 12:56 44.30109 66.89050 34911 ft 502 kts 90°
2026-04-25 12:56 44.30154 66.98797 34911 ft 502 kts 90°
2026-04-25 12:57 44.30192 67.08538 34920 ft 503 kts 90°
2026-04-25 12:57 44.30221 67.18303 34924 ft 503 kts 90°
2026-04-25 12:58 44.30241 67.28069 34937 ft 503 kts 90°
2026-04-25 12:58 44.30253 67.37831 34939 ft 503 kts 91°
2026-04-25 12:59 44.30257 67.47592 34936 ft 503 kts 90°
2026-04-25 12:59 44.30397 67.57337 34950 ft 501 kts 86°
2026-04-25 13:00 44.30735 67.63820 34955 ft 500 kts 85°
2026-04-25 13:00 44.31524 67.76704 34956 ft 500 kts 85°
2026-04-25 13:01 44.32069 67.86384 34956 ft 500 kts 85°
2026-04-25 13:01 44.32491 67.94416 34954 ft 499 kts 85°
2026-04-25 13:02 44.32982 68.04081 34965 ft 499 kts 85°
2026-04-25 13:02 44.33464 68.13740 34962 ft 499 kts 86°
2026-04-25 13:03 44.33941 68.23403 34963 ft 499 kts 86°
2026-04-25 13:03 44.34409 68.33058 34959 ft 498 kts 86°
2026-04-25 13:04 44.34869 68.42705 34959 ft 498 kts 86°
2026-04-25 13:04 44.35321 68.52357 34963 ft 498 kts 86°
2026-04-25 13:05 44.35765 68.62006 34970 ft 498 kts 86°
2026-04-25 13:05 44.36202 68.71674 34970 ft 498 kts 86°
2026-04-25 13:06 44.36630 68.81341 34969 ft 498 kts 86°
2026-04-25 13:06 44.36874 68.91005 34972 ft 497 kts 94°
2026-04-25 13:07 44.36007 69.00509 34979 ft 496 kts 99°
2026-04-25 13:07 44.34887 69.10013 34984 ft 496 kts 100°
2026-04-25 13:08 44.33717 69.19497 34977 ft 496 kts 100°
2026-04-25 13:08 44.32552 69.28984 34991 ft 496 kts 100°
2026-04-25 13:09 44.31393 69.38476 34991 ft 496 kts 100°
2026-04-25 13:09 44.30231 69.47959 34995 ft 496 kts 100°
2026-04-25 13:10 44.29061 69.57435 34998 ft 495 kts 100°
2026-04-25 13:10 44.27885 69.66888 35002 ft 494 kts 100°
2026-04-25 13:11 44.26700 69.76337 35002 ft 494 kts 100°
2026-04-25 13:11 44.25509 69.85775 35007 ft 494 kts 100°
2026-04-25 13:12 44.24310 69.95215 35010 ft 494 kts 101°
2026-04-25 13:12 44.23307 70.03056 35013 ft 494 kts 101°
2026-04-25 13:13 44.21888 70.14083 35016 ft 494 kts 101°
2026-04-25 13:13 44.20667 70.23493 35017 ft 493 kts 101°
2026-04-25 13:14 44.19447 70.32834 35023 ft 493 kts 101°
2026-04-25 13:14 44.18216 70.42212 35017 ft 492 kts 101°
2026-04-25 13:15 44.16984 70.51581 35021 ft 492 kts 101°
2026-04-25 13:15 44.15746 70.60943 35025 ft 492 kts 101°
2026-04-25 13:16 44.14501 70.70300 35025 ft 492 kts 101°
2026-04-25 13:16 44.13247 70.79657 35014 ft 491 kts 101°
2026-04-25 13:17 44.11988 70.88992 35016 ft 490 kts 101°
2026-04-25 13:17 44.10723 70.98307 35023 ft 490 kts 101°
2026-04-25 13:18 44.09453 71.07618 35024 ft 490 kts 101°
2026-04-25 13:18 44.08176 71.16936 35026 ft 490 kts 101°
2026-04-25 13:19 44.06895 71.26223 35024 ft 489 kts 101°
2026-04-25 13:19 44.05823 71.33949 35019 ft 489 kts 101°
2026-04-25 13:20 44.04307 71.44801 35020 ft 489 kts 101°
2026-04-25 13:20 44.03005 71.54065 35025 ft 488 kts 101°
2026-04-25 13:21 44.01696 71.63314 35037 ft 488 kts 101°
2026-04-25 13:21 44.00381 71.72556 35030 ft 488 kts 101°
2026-04-25 13:22 43.99058 71.81791 35030 ft 488 kts 101°
2026-04-25 13:23 43.97773 71.95778 35030 ft 487 kts 94°
2026-04-25 13:23 43.97297 72.05101 35030 ft 487 kts 94°
2026-04-25 13:24 43.96845 72.14470 35034 ft 486 kts 94°
2026-04-25 13:24 43.96379 72.23823 35023 ft 485 kts 94°
2026-04-25 13:25 43.95897 72.33147 35032 ft 485 kts 94°
2026-04-25 13:25 43.95405 72.42472 35036 ft 485 kts 94°
2026-04-25 13:26 43.94905 72.51792 35043 ft 484 kts 94°
2026-04-25 13:26 43.94398 72.61098 35043 ft 484 kts 94°
2026-04-25 13:27 43.93884 72.70410 35049 ft 484 kts 94°
2026-04-25 13:27 43.93363 72.79715 35049 ft 484 kts 94°
2026-04-25 13:28 43.92834 72.89020 35047 ft 483 kts 94°
2026-04-25 13:28 43.92298 72.98307 35049 ft 483 kts 94°
2026-04-25 13:29 43.91755 73.07601 35048 ft 483 kts 94°
2026-04-25 13:29 43.91204 73.16888 35053 ft 483 kts 94°
2026-04-25 13:30 43.90363 73.30820 35065 ft 483 kts 94°
2026-04-25 13:31 43.89506 73.44742 35055 ft 483 kts 94°
2026-04-25 13:31 43.88925 73.54025 35065 ft 483 kts 95°
2026-04-25 13:32 43.88336 73.63302 35071 ft 483 kts 95°
2026-04-25 13:32 43.87740 73.72584 35037 ft 483 kts 95°
2026-04-25 13:33 43.87137 73.81861 35062 ft 483 kts 95°
2026-04-25 13:33 43.86525 73.91140 35066 ft 484 kts 95°
2026-04-25 13:34 43.85906 74.00419 35088 ft 483 kts 95°
2026-04-25 13:34 43.85280 74.09692 35089 ft 484 kts 95°
2026-04-25 13:35 43.84646 74.18973 35089 ft 484 kts 95°
2026-04-25 13:35 43.84004 74.28255 35094 ft 484 kts 95°
2026-04-25 13:36 43.82759 74.37350 35106 ft 484 kts 102°
2026-04-25 13:36 43.81323 74.46453 35112 ft 484 kts 102°
2026-04-25 13:37 43.79856 74.55555 35111 ft 484 kts 102°
2026-04-25 13:37 43.78378 74.64645 35110 ft 484 kts 102°
2026-04-25 13:38 43.76892 74.73731 35116 ft 484 kts 102°
2026-04-25 13:38 43.75412 74.82732 34677 ft 473 kts 102°
2026-04-25 13:38 43.74683 74.87147 33923 ft 470 kts 102°
2026-04-25 13:39 43.73952 74.91564 32744 ft 473 kts 102°
2026-04-25 13:39 43.73214 74.96009 31540 ft 478 kts 102°
2026-04-25 13:39 43.72463 75.00522 30422 ft 485 kts 102°
2026-04-25 13:39 43.71703 75.05084 29222 ft 490 kts 102°
2026-04-25 13:40 43.70934 75.09678 28135 ft 491 kts 102°
2026-04-25 13:40 43.70164 75.14267 27040 ft 491 kts 102°
2026-04-25 13:40 43.69391 75.18866 26133 ft 489 kts 102°
2026-04-25 13:40 43.68626 75.23396 25447 ft 480 kts 102°
2026-04-25 13:41 43.67872 75.27858 24709 ft 475 kts 102°
2026-04-25 13:41 43.67123 75.32277 23969 ft 470 kts 102°
2026-04-25 13:41 43.66381 75.36644 23159 ft 464 kts 102°
2026-04-25 13:41 43.65648 75.40950 22411 ft 457 kts 102°
2026-04-25 13:42 43.64924 75.45189 21713 ft 450 kts 102°
2026-04-25 13:42 43.64216 75.49330 21342 ft 437 kts 102°
2026-04-25 13:42 43.63624 75.53424 20622 ft 434 kts 96°
2026-04-25 13:42 43.63370 75.57548 19962 ft 430 kts 92°
2026-04-25 13:43 43.63199 75.61650 19489 ft 423 kts 92°
2026-04-25 13:43 43.63039 75.65618 19385 ft 406 kts 92°
2026-04-25 13:43 43.62882 75.69429 19232 ft 391 kts 92°
2026-04-25 13:43 43.62727 75.73124 19020 ft 380 kts 92°
2026-04-25 13:44 43.62571 75.76765 18472 ft 381 kts 93°
2026-04-25 13:44 43.62549 75.80426 18067 ft 381 kts 83°
2026-04-25 13:44 43.63249 75.83859 17982 ft 377 kts 62°
2026-04-25 13:44 43.64792 75.86733 17982 ft 372 kts 40°
2026-04-25 13:45 43.66955 75.88618 17982 ft 367 kts 19°
2026-04-25 13:45 43.69388 75.89637 17985 ft 365 kts 12°
2026-04-25 13:45 43.71859 75.90469 17981 ft 366 kts 12°
2026-04-25 13:45 43.74247 75.91704 17979 ft 370 kts 26°
2026-04-25 13:46 43.76435 75.93584 17981 ft 371 kts 32°
2026-04-25 13:46 43.78566 75.95605 17980 ft 372 kts 32°
2026-04-25 13:46 43.80692 75.97645 17978 ft 372 kts 33°
2026-04-25 13:46 43.82785 75.99750 17973 ft 373 kts 38°
2026-04-25 13:47 43.84538 76.02409 17981 ft 376 kts 51°
2026-04-25 13:47 43.85947 76.05460 17900 ft 378 kts 63°
2026-04-25 13:47 43.86646 76.08957 17588 ft 379 kts 85°
2026-04-25 13:47 43.86378 76.12559 17297 ft 377 kts 107°
2026-04-25 13:48 43.85193 76.15764 16999 ft 374 kts 129°
2026-04-25 13:48 43.83275 76.18142 16731 ft 370 kts 150°
2026-04-25 13:48 43.80990 76.19739 16460 ft 367 kts 158°
2026-04-25 13:48 43.78653 76.21162 16178 ft 366 kts 159°
2026-04-25 13:49 43.76325 76.22568 15901 ft 364 kts 158°
2026-04-25 13:49 43.74011 76.23977 15624 ft 363 kts 158°
2026-04-25 13:49 43.71710 76.25388 15352 ft 361 kts 158°
2026-04-25 13:49 43.70195 76.26320 15170 ft 360 kts 158°
2026-04-25 13:50 43.67146 76.28199 14811 ft 357 kts 158°
2026-04-25 13:50 43.65645 76.29126 14633 ft 356 kts 158°
2026-04-25 13:50 43.63389 76.30517 14367 ft 355 kts 158°
2026-04-25 13:50 43.61141 76.31900 14114 ft 353 kts 159°
2026-04-25 13:51 43.58831 76.32988 13775 ft 350 kts 166°
2026-04-25 13:51 43.56470 76.33779 13253 ft 348 kts 169°
2026-04-25 13:51 43.54115 76.34512 12830 ft 345 kts 169°
2026-04-25 13:51 43.51779 76.35238 12428 ft 343 kts 169°
2026-04-25 13:52 43.49459 76.35993 12082 ft 342 kts 166°
2026-04-25 13:52 43.47291 76.37319 11653 ft 344 kts 147°
2026-04-25 13:52 43.45471 76.39438 11201 ft 342 kts 138°
2026-04-25 13:52 43.43765 76.41699 10788 ft 340 kts 137°
2026-04-25 13:53 43.42088 76.43939 10514 ft 331 kts 137°
2026-04-25 13:53 43.40454 76.46110 10211 ft 323 kts 137°
2026-04-25 13:53 43.38857 76.48221 10005 ft 313 kts 137°
2026-04-25 13:53 43.37305 76.50263 9740 ft 306 kts 137°
2026-04-25 13:54 43.35773 76.52273 9352 ft 303 kts 138°
2026-04-25 13:54 43.34270 76.54240 9002 ft 300 kts 138°
2026-04-25 13:54 43.32773 76.56198 8687 ft 295 kts 138°
2026-04-25 13:54 43.31302 76.58120 8416 ft 289 kts 137°
2026-04-25 13:55 43.29840 76.60029 8145 ft 284 kts 138°
2026-04-25 13:55 43.28446 76.61848 7882 ft 276 kts 137°
2026-04-25 13:55 43.27107 76.63672 7638 ft 268 kts 131°
2026-04-25 13:55 43.26188 76.65885 7180 ft 271 kts 108°
2026-04-25 13:56 43.25714 76.68365 6813 ft 268 kts 103°
2026-04-25 13:56 43.25314 76.70853 6377 ft 267 kts 102°
2026-04-25 13:56 43.24923 76.73310 6189 ft 259 kts 102°
2026-04-25 13:56 43.24536 76.75699 5916 ft 256 kts 103°
2026-04-25 13:57 43.24150 76.78055 5717 ft 250 kts 103°
2026-04-25 13:57 43.23940 76.79587 5619 ft 243 kts 95°
2026-04-25 13:57 43.24426 76.82465 5406 ft 225 kts 60°
2026-04-25 13:57 43.25260 76.84176 5275 ft 208 kts 53°
2026-04-25 13:58 43.26125 76.85701 5022 ft 198 kts 51°
2026-04-25 13:58 43.26966 76.87142 4734 ft 190 kts 54°
2026-04-25 13:58 43.27680 76.88605 4517 ft 179 kts 57°
2026-04-25 13:58 43.28353 76.89991 4292 ft 169 kts 56°
2026-04-25 13:59 43.28985 76.91263 4049 ft 153 kts 56°
2026-04-25 13:59 43.29564 76.92434 3851 ft 146 kts 57°
2026-04-25 13:59 43.30128 76.93590 3680 ft 146 kts 57°
2026-04-25 13:59 43.30696 76.94752 3492 ft 147 kts 57°
2026-04-25 14:00 43.31264 76.95908 3303 ft 146 kts 57°
2026-04-25 14:00 43.31827 76.97054 3106 ft 144 kts 56°
2026-04-25 14:00 43.32388 76.98195 2906 ft 144 kts 56°
2026-04-25 14:00 43.32949 76.99335 2704 ft 143 kts 56°
2026-04-25 14:01 43.33508 77.00472 2505 ft 143 kts 55°
2026-04-25 14:01 43.34066 77.01607 2321 ft 144 kts 55°
2026-04-25 14:01 43.34608 77.02708 2240 ft 123 kts 56°
2026-04-25 14:01 43.34942 77.03372 2239 ft 42 kts 55°
2026-04-25 14:02 43.35054 77.03608 2239 ft 27 kts 58°
2026-04-25 14:02 43.35151 77.03813 2238 ft 24 kts 56°
2026-04-25 14:02 43.35270 77.03941 2237 ft 21 kts 22°
2026-04-25 14:02 43.35362 77.03982 2236 ft 20 kts 16°
2026-04-25 14:03 43.35426 77.03984 2237 ft 7 kts 322°
2026-04-25 14:03 43.35419 77.03903 2237 ft 11 kts 234°
2026-04-25 14:03 43.35382 77.03829 2238 ft 8 kts 236°
2026-04-25 14:03 43.35340 77.03744 2239 ft 14 kts 236°
2026-04-25 14:04 43.35275 77.03613 2239 ft 17 kts 236°
2026-04-25 14:04 43.35212 77.03487 2241 ft 15 kts 236°
2026-04-25 14:04 43.35158 77.03376 2241 ft 14 kts 236°
2026-04-25 14:04 43.35107 77.03271 2241 ft 13 kts 236°
2026-04-25 14:05 43.35061 77.03176 2241 ft 11 kts 236°
2026-04-25 14:05 43.35016 77.03086 2239 ft 12 kts 235°
2026-04-25 14:05 43.34970 77.02995 2238 ft 11 kts 235°
2026-04-25 14:05 43.34928 77.02910 2239 ft 10 kts 236°
2026-04-25 14:06 43.34892 77.02835 2238 ft 9 kts 236°
2026-04-25 14:06 43.34857 77.02764 2238 ft 9 kts 236°
2026-04-25 14:06 43.34812 77.02672 2239 ft 15 kts 236°
2026-04-25 14:06 43.34754 77.02532 2241 ft 12 kts 264°
2026-04-25 14:07 43.34774 77.02494 2241 ft 5 kts 319°
2026-04-25 14:07 43.34840 77.02416 2236 ft 18 kts 319°
2026-04-25 14:07 43.34940 77.02298 2230 ft 19 kts 319°
2026-04-25 14:07 43.35019 77.02172 2225 ft 16 kts 285°
2026-04-25 14:08 43.35024 77.02027 2232 ft 15 kts 274°
2026-04-25 14:08 43.35029 77.01895 2232 ft 13 kts 273°
2026-04-25 14:08 43.35082 77.01854 2232 ft 9 kts
2026-04-25 14:08 43.35132 77.01856 2229 ft 0 kts